Location: Slanting_Bridge
(35.6330°N, 80.9830°W)
Time: 17:48:08
(UTC-04:00)

Amateur Radio Satellites - All Passes

Search period start: 31 May 2016 17:18
Search period end: 01 June 2016 17:18
Location: Slanting_Bridge, 35.6330°N, 80.9830°W

Satellite Date Start Highest point End Downlink Frequencies (MHz)
Time Altitude Azimuth
Cubesat XI-IV 31 May 17:26:20 17:27:11 10° 61° (ENE) 17:28:02 437.490
RS-15 31 May 17:28:00 17:39:15 85° 117° (ESE) 17:51:11 29.354- 29.394
HORYU 2 31 May 17:28:52 17:33:17 88° 256° (WSW) 17:37:43 437.375
STARS 31 May 17:31:07 17:35:29 71° 101° (ESE) 17:39:49 437.465
BRITE-PL 31 May 17:54:51 17:59:26 26° 68° (ENE) 18:04:01 437.365/2234.400
MOZHAYETS 4 31 May 17:55:05 17:59:24 40° 288° (WNW) 18:03:44
LilacSat-2 31 May 17:56:01 17:57:38 12° 68° (ENE) 17:59:15 437.200
CUBESAT XI-V 31 May 17:56:04 17:59:35 21° 94° (E) 18:03:04 437.345
NOAA 18 31 May 17:56:35 18:01:09 28° 67° (ENE) 18:05:44 137.9125
GOMX 1 31 May 17:59:23 18:01:40 13° 64° (ENE) 18:03:55 467.674
CUTE-I 31 May 18:07:05 18:11:31 28° 68° (ENE) 18:15:58 437.470
AO-7 31 May 18:17:24 18:21:43 15° 268° (W) 18:26:03 29.400- 29.500
PCSat 31 May 18:18:10 18:23:05 33° 56° (ENE) 18:27:57 145.827
O/OREOS (USA 219) 31 May 18:32:31 18:35:45 19° 60° (ENE) 18:38:57 437.305
NOAA 15 31 May 18:40:04 18:45:23 86° 76° (ENE) 18:50:44 137.62
YUBILEINY 31 May 18:50:24 18:54:57 15° 295° (WNW) 18:59:32 435.215
HO-68 31 May 18:52:29 18:55:14 13° 55° (NE) 18:58:00 435.675
Cosmos 2504 31 May 18:53:17 19:00:08 44° 283° (WNW) 19:07:23 435.465 / 435.565
Cubesat XI-IV 31 May 19:01:07 19:06:26 89° 255° (WSW) 19:11:48 437.490
BEESAT 3 31 May 19:24:07 19:27:05 20° 52° (NE) 19:30:03 437.485
PHONESAT 2.4 31 May 19:25:43 19:27:33 15° 144° (SE) 19:29:24 2401.200-2431.200
STRAND 1 31 May 19:26:07 19:28:36 13° 92° (E) 19:31:05 437.568
LilacSat-2 31 May 19:28:03 19:31:35 37° 262° (W) 19:35:06 437.200
BRITE-PL 31 May 19:32:19 19:37:37 40° 263° (W) 19:42:57 437.365/2234.400
CUBESAT XI-V 31 May 19:32:46 19:36:59 33° 289° (WNW) 19:41:09 437.345
GOMX 1 31 May 19:33:36 19:39:05 78° 258° (WSW) 19:44:27 467.674
NOAA 18 31 May 19:36:47 19:41:39 33° 262° (W) 19:46:32 137.9125
RS-15 31 May 19:43:36 19:53:15 30° 322° (NW) 20:03:24 29.354- 29.394
AUBIESAT-1 31 May 19:45:21 19:48:18 20° 66° (ENE) 19:51:07 437.475
CUTE-I 31 May 19:46:44 19:51:25 32° 263° (W) 19:56:09 437.470
M-CUBED/EXP-1 PRIME 31 May 19:55:19 19:59:02 33° 69° (ENE) 20:02:29 437.505
CINEMA 3 31 May 19:58:48 20:02:38 26° 71° (ENE) 20:06:20 145.822/145.860
DOVE 4 31 May 19:59:57 20:05:10 86° 256° (WSW) 20:10:10 437.250
PCSat 31 May 20:01:43 20:06:20 29° 252° (WSW) 20:10:56 145.827
SEEDS 31 May 20:10:10 20:13:16 21° 69° (ENE) 20:16:24 437.485
O/OREOS (USA 219) 31 May 20:11:10 20:15:12 34° 256° (WSW) 20:19:13 437.305
CANX-2 31 May 20:15:49 20:19:43 39° 73° (ENE) 20:23:40 2200.000
ISS 31 May 20:17:09 20:20:24 81° 318° (NW) 20:23:41 145.825
CUBEBUG 2 31 May 20:19:59 20:21:34 12° 67° (ENE) 20:23:10 437.445
HO-68 31 May 20:34:39 20:41:46 76° 72° (ENE) 20:48:54 435.675
BEESAT 2 31 May 20:35:12 20:39:11 69° 61° (ENE) 20:43:07 435.950
UWE-3 31 May 20:38:27 20:40:24 13° 67° (ENE) 20:42:20 435.000/436.395/437.385
CUTE 1.7 + AOD 2 31 May 20:41:51 20:46:02 72° 76° (ENE) 20:50:15 437.475
AAUSAT CUBESAT 2 31 May 20:45:07 20:48:41 29° 72° (ENE) 20:52:17 437.432
GONETS M04 31 May 20:46:27 20:52:17 20° 81° (E) 20:58:05
PRISM 31 May 20:46:41 20:48:40 13° 93° (E) 20:50:37 437.425
COMPASS 1 31 May 20:46:52 20:50:43 39° 73° (ENE) 20:54:36 437.405
PHONESAT 2.4 31 May 21:00:49 21:03:58 88° 161° (SSE) 21:07:07 2401.200-2431.200
BEESAT 3 31 May 21:01:20 21:04:47 29° 247° (WSW) 21:08:13 437.485
STRAND 1 31 May 21:03:02 21:08:07 60° 286° (WNW) 21:13:11 437.568
Oscar 11 31 May 21:05:25 21:08:34 20° 69° (ENE) 21:11:44 145.826/435.025
AIST 1 31 May 21:09:10 21:13:27 53° 93° (E) 21:17:44
AUBIESAT-1 31 May 21:19:16 21:22:39 25° 257° (WSW) 21:25:52 437.475
Cosmos 2499 31 May 21:23:49 21:28:19 18° 80° (E) 21:32:59 435.465 / 435.565
ZACube-1 31 May 21:28:07 21:31:52 32° 72° (ENE) 21:35:34 437.345
CUSAT 1 31 May 21:30:06 21:33:33 14° 60° (ENE) 21:36:41 437.405
M-CUBED/EXP-1 PRIME 31 May 21:31:04 21:33:34 16° 259° (W) 21:35:58 437.505
CINEMA 3 31 May 21:35:45 21:39:39 26° 263° (W) 21:43:27 145.822/145.860
SEEDS 31 May 21:45:16 21:48:47 27° 264° (W) 21:52:22 437.485
AIST 2 31 May 21:45:33 21:48:55 23° 52° (NE) 21:52:16 435.215
CANX-2 31 May 21:53:31 21:55:44 14° 267° (W) 21:57:57 2200.000
CUBEBUG 2 31 May 21:53:32 21:57:46 51° 260° (W) 22:01:55 437.445
ISS 31 May 21:55:53 21:57:18 12° 335° (NNW) 21:58:42 145.825
FUNcube-1 31 May 22:03:05 22:07:17 82° 77° (ENE) 22:11:27 145.935
DANDE 31 May 22:04:51 22:09:44 17° 62° (ENE) 22:14:15 436.750
RS-15 31 May 22:05:57 22:11:46 14° 357° (N) 22:17:40 29.354- 29.394
DELFI C3 31 May 22:11:25 22:15:16 53° 75° (ENE) 22:19:10 145.870
UWE-3 31 May 22:12:22 22:16:28 45° 261° (W) 22:20:30 435.000/436.395/437.385
PRISM 31 May 22:20:13 22:24:09 41° 287° (WNW) 22:28:02 437.425
AAUSAT CUBESAT 2 31 May 22:21:18 22:24:11 18° 266° (W) 22:27:04 437.432
COMPASS 1 31 May 22:24:18 22:26:25 14° 267° (W) 22:28:33 437.405
HO-68 31 May 22:25:48 22:30:03 17° 268° (W) 22:34:19 435.675
SO-50 31 May 22:29:30 22:30:32 11° 106° (ESE) 22:31:35 436.795
HUMSAT D 31 May 22:31:26 22:35:13 38° 73° (ENE) 22:39:00 437.325/437.525
PHONESAT 2.4 31 May 22:37:59 22:40:54 33° 354° (N) 22:43:48 2401.200-2431.200
GONETS M04 31 May 22:39:19 22:48:06 74° 277° (W) 22:56:53
Oscar 11 31 May 22:40:46 22:44:30 29° 263° (W) 22:48:15 145.826/435.025
AIST 1 31 May 22:50:08 22:51:21 11° 289° (WNW) 22:52:34
ZACube-1 31 May 23:05:26 23:08:11 17° 266° (W) 23:10:56 437.345
UNISAT 6 31 May 23:08:31 23:12:20 29° 97° (E) 23:16:11 437.425
CUSAT 1 31 May 23:09:42 23:17:00 89° 272° (W) 23:22:41 437.405
DX 1 31 May 23:10:31 23:11:34 11° 64° (ENE) 23:12:39 434.975-435.025
CUBEBUG 1 31 May 23:11:18 23:13:36 14° 66° (ENE) 23:15:56 437.445
Cosmos 2499 31 May 23:13:08 23:20:22 70° 279° (W) 23:28:12 435.465 / 435.565
TIGRISAT 31 May 23:14:22 23:18:15 32° 98° (E) 23:22:12 435.000
50 SAT 31 May 23:15:06 23:16:50 13° 68° (ENE) 23:18:34 437.505
AIST 2 31 May 23:23:49 23:27:21 27° 248° (WSW) 23:30:52 435.215
ESTCUBE 1 31 May 23:26:58 23:30:56 31° 71° (ENE) 23:34:56 437.505/2401.250
VELOX 1 31 May 23:29:36 23:33:02 22° 69° (ENE) 23:36:29 145.980
DANDE 31 May 23:45:34 23:53:54 88° 82° (E) 00:00:49 436.750
UKube-1 31 May 23:48:11 23:51:37 23° 69° (ENE) 23:55:04 .
NANOSAT C BR1 31 May 23:48:57 23:50:34 12° 92° (E) 23:52:10 145.865
ANTELSAT 31 May 23:49:07 23:53:30 89° 114° (ESE) 23:57:57 437.575/2403.000
AISAT 01 Jun 00:05:12 00:09:36 60° 75° (ENE) 00:14:00 437.250
SO-50 01 Jun 00:05:28 00:10:22 76° 301° (WNW) 00:15:17 436.795
HUMSAT D 01 Jun 00:09:02 00:10:59 13° 267° (W) 00:12:57 437.325/437.525
PHONESAT 2.4 01 Jun 00:15:02 00:18:01 39° 11° (N) 00:20:59 2401.200-2431.200
RS-15 01 Jun 00:21:24 00:30:57 25° 33° (NNE) 00:40:30 29.354- 29.394
DUCHIFAT 1 01 Jun 00:23:24 00:27:04 30° 97° (E) 00:30:45 145.980
BUGSAT 1 01 Jun 00:23:24 00:24:59 12° 93° (E) 00:26:32 437.445
DX 1 01 Jun 00:42:52 00:47:12 62° 259° (W) 00:51:33 434.975-435.025
GONETS M04 01 Jun 00:43:24 00:46:28 12° 298° (WNW) 00:49:32
CUBEBUG 1 01 Jun 00:45:11 00:49:27 47° 260° (W) 00:53:45 437.445
UNISAT 6 01 Jun 00:45:36 00:48:52 21° 291° (WNW) 00:52:10 437.425
50 SAT 01 Jun 00:46:58 00:50:14 32° 262° (W) 00:53:32 437.505
SPROUT 01 Jun 00:50:06 00:54:22 70° 76° (ENE) 00:58:38 437.525
TIGRISAT 01 Jun 00:51:38 00:54:43 19° 291° (WNW) 00:57:49 435.000
CUSAT 1 01 Jun 00:55:30 00:57:31 11° 283° (WNW) 00:59:24 437.405
TISAT 1 01 Jun 00:57:40 01:00:52 21° 69° (ENE) 01:04:04 437.305
ESTCUBE 1 01 Jun 01:04:22 01:07:45 21° 265° (W) 01:11:08 437.505/2401.250
VELOX 1 01 Jun 01:05:27 01:09:18 29° 263° (W) 01:13:12 145.980
QB50P1 01 Jun 01:06:43 01:10:53 68° 284° (WNW) 01:15:03 145.935-145.965
POPSAT HIP 1 01 Jun 01:06:47 01:10:57 69° 285° (WNW) 01:15:07 437.405
QB50P2 01 Jun 01:10:48 01:14:56 57° 285° (WNW) 01:19:03 145.880/145.840
POLYITAN 1 01 Jun 01:13:18 01:17:25 55° 285° (WNW) 01:21:31 437.675
NANOSAT C BR1 01 Jun 01:22:30 01:26:29 45° 286° (WNW) 01:30:29 145.865
UKube-1 01 Jun 01:23:55 01:27:32 25° 263° (W) 01:31:08 .
JAS-2 01 Jun 01:24:01 01:30:07 31° 93° (E) 01:35:35 435.910
DANDE 01 Jun 01:31:00 01:35:20 16° 282° (WNW) 01:39:22 436.750
Oscar 19 01 Jun 01:45:07 01:48:19 16° 93° (E) 01:51:30 437.125/150
AISAT 01 Jun 01:45:46 01:46:24 10° 268° (W) 01:47:02 437.250
SO-50 01 Jun 01:50:35 01:51:39 11° 318° (NW) 01:52:44 436.795
PHONESAT 2.4 01 Jun 01:51:45 01:54:49 55° 206° (SSW) 01:57:53 2401.200-2431.200
BUGSAT 1 01 Jun 01:56:45 02:00:32 41° 287° (WNW) 02:04:17 437.445
DUCHIFAT 1 01 Jun 01:59:38 02:02:33 19° 291° (WNW) 02:05:27 145.980
SWISSCUBE 01 Jun 02:20:04 02:24:25 37° 71° (ENE) 02:28:49 437.505
ITUPSAT 1 01 Jun 02:28:49 02:33:15 41° 72° (ENE) 02:37:44 437.325
TISAT 1 01 Jun 02:32:47 02:36:21 26° 263° (W) 02:39:55 437.305
RS-15 01 Jun 02:33:28 02:45:53 77° 59° (ENE) 02:58:07 29.354- 29.394
Gurwin Techsat 1B 01 Jun 02:45:36 02:50:07 28° 96° (E) 02:54:37 435.225
ISS 01 Jun 02:47:25 02:50:21 30° 35° (NE) 02:53:16 145.825
BEESAT 01 Jun 02:48:47 02:53:30 70° 75° (ENE) 02:58:15 436.000
YUBILEINY 01 Jun 03:02:19 03:10:29 41° 76° (ENE) 03:18:36 435.215
JAS-2 01 Jun 03:08:36 03:15:13 41° 292° (WNW) 03:21:08 435.910
MOZHAYETS 4 01 Jun 03:19:48 03:21:24 12° 64° (ENE) 03:23:01
Oscar 19 01 Jun 03:22:55 03:27:52 49° 288° (WNW) 03:32:47 437.125/150
Cosmos 2491 01 Jun 03:55:02 04:03:28 52° 89° (E) 04:11:53 435.465 / 435.565
AO-85 01 Jun 03:56:12 03:57:20 11° 105° (ESE) 03:58:28 145.980
SWISSCUBE 01 Jun 03:58:58 04:02:19 19° 266° (W) 04:05:40 437.505
KKS-1 01 Jun 04:02:23 04:06:41 48° 73° (ENE) 04:10:59 437.445
ITUPSAT 1 01 Jun 04:08:06 04:11:13 17° 266° (W) 04:14:22 437.325
ITAMSAT 1 01 Jun 04:14:58 04:20:14 79° 103° (ESE) 04:25:27 435.822/435.867
ISS 01 Jun 04:24:05 04:26:40 21° 230° (SW) 04:29:13 145.825
STARS 01 Jun 04:24:45 04:28:54 42° 73° (ENE) 04:33:03 437.465
AO-7 01 Jun 04:25:08 04:32:45 37° 99° (E) 04:40:18 29.400- 29.500
Gurwin Techsat 1B 01 Jun 04:25:21 04:30:00 32° 291° (WNW) 04:34:38 435.225
Cosmos 2504 01 Jun 04:47:26 04:55:55 57° 80° (E) 05:04:37 435.465 / 435.565
RS-15 01 Jun 04:47:36 04:57:08 28° 258° (WSW) 05:06:38 29.354- 29.394
MOZHAYETS 4 01 Jun 04:53:31 04:58:00 60° 259° (W) 05:02:32
CUBESAT XI-V 01 Jun 04:57:22 05:00:04 15° 66° (ENE) 05:02:46 437.345
YUBILEINY 01 Jun 04:59:15 05:07:06 39° 273° (W) 05:14:59 435.215
HORYU 2 01 Jun 05:23:24 05:26:49 22° 96° (E) 05:30:14 437.375
JUGNU 01 Jun 05:26:26 05:29:50 16° 173° (S) 05:33:15 437.505
AO-85 01 Jun 05:31:39 05:37:07 88° 298° (WNW) 05:42:31 145.980
KKS-1 01 Jun 05:41:26 05:43:28 13° 267° (W) 05:45:30 437.445
Cosmos 2491 01 Jun 05:53:00 06:00:32 31° 287° (WNW) 06:08:06 435.465 / 435.565
ITAMSAT 1 01 Jun 05:57:12 05:58:59 12° 298° (WNW) 06:00:45 435.822/435.867
STARS 01 Jun 06:03:00 06:05:25 14° 267° (W) 06:07:49 437.465
AO-7 01 Jun 06:17:42 06:25:29 45° 296° (WNW) 06:33:16 29.400- 29.500
NOAA 18 01 Jun 06:22:34 06:25:29 14° 93° (E) 06:28:24 137.9125
CUTE-I 01 Jun 06:28:19 06:30:54 13° 92° (E) 06:33:27 437.470
CUBESAT XI-V 01 Jun 06:32:30 06:37:00 48° 261° (W) 06:41:33 437.345
STRAND 1 01 Jun 06:39:21 06:42:15 15° 64° (ENE) 06:45:11 437.568
Cosmos 2504 01 Jun 06:41:46 06:48:45 28° 276° (W) 06:55:54 435.465 / 435.565
NOAA 15 01 Jun 06:58:29 07:03:28 41° 99° (E) 07:08:25 137.62
HORYU 2 01 Jun 06:59:31 07:03:20 29° 290° (WNW) 07:07:10 437.375
LilacSat-2 01 Jun 07:04:23 07:07:35 26° 96° (E) 07:10:47 437.200
JUGNU 01 Jun 07:14:28 07:18:06 17° 184° (S) 07:21:45 437.505
AO-85 01 Jun 07:15:28 07:18:19 14° 316° (NW) 07:21:08 145.980
Cubesat XI-IV 01 Jun 07:21:27 07:26:38 47° 100° (E) 07:31:47 437.490
SRMSAT 01 Jun 07:29:33 07:32:54 15° 173° (S) 07:36:15 437.500
GOMX 1 01 Jun 07:39:34 07:43:41 36° 97° (E) 07:47:36 467.674
BRITE-PL 01 Jun 07:40:45 07:45:39 86° 280° (W) 07:50:07 437.365/2234.400
NOAA 18 01 Jun 08:01:05 08:06:30 62° 287° (WNW) 08:11:55 137.9125
DOVE 4 01 Jun 08:02:50 08:06:31 28° 96° (E) 08:10:05 437.250
CUTE-I 01 Jun 08:06:00 08:11:19 64° 286° (WNW) 08:16:36 437.470
HO-68 01 Jun 08:07:48 08:11:53 16° 92° (E) 08:15:57 435.675
STRAND 1 01 Jun 08:15:56 08:20:55 56° 259° (W) 08:25:57 437.568
CUTE 1.7 + AOD 2 01 Jun 08:30:57 08:33:33 16° 93° (E) 08:36:08 437.475
NOAA 15 01 Jun 08:38:58 08:42:56 22° 294° (WNW) 08:46:52 137.62
LilacSat-2 01 Jun 08:39:09 08:41:41 17° 290° (WNW) 08:44:13 437.200
SO-50 01 Jun 08:40:07 08:44:34 42° 55° (NE) 08:48:51 436.795
O/OREOS (USA 219) 01 Jun 08:41:02 08:45:13 37° 104° (ESE) 08:49:25 437.305
GONETS M04 01 Jun 08:53:29 09:01:50 49° 78° (ENE) 09:10:08
PCSat 01 Jun 08:56:25 09:01:40 55° 112° (ESE) 09:06:58 145.827
AIST 1 01 Jun 08:56:38 09:00:52 56° 266° (W) 09:05:03
AUBIESAT-1 01 Jun 09:00:43 09:03:08 19° 101° (ESE) 09:05:37 437.475
Cubesat XI-IV 01 Jun 09:02:31 09:06:18 20° 295° (WNW) 09:10:05 437.490
JUGNU 01 Jun 09:04:38 09:06:21 11° 194° (SSW) 09:08:04 437.505
PRISM 01 Jun 09:06:05 09:10:15 90° 299° (WNW) 09:14:26 437.425
Cosmos 2499 01 Jun 09:07:02 09:15:02 38° 75° (ENE) 09:23:04 435.465 / 435.565
M-CUBED/EXP-1 PRIME 01 Jun 09:11:32 09:14:32 33° 104° (ESE) 09:17:37 437.505
SRMSAT 01 Jun 09:17:37 09:21:20 17° 183° (S) 09:25:01 437.500
GOMX 1 01 Jun 09:18:40 09:21:25 16° 294° (WNW) 09:24:06 467.674
SEEDS 01 Jun 09:31:13 09:35:26 59° 100° (E) 09:39:38 437.485
CINEMA 3 01 Jun 09:32:26 09:36:35 88° 286° (WNW) 09:40:47 145.822/145.860
CANX-2 01 Jun 09:39:03 09:43:19 66° 284° (WNW) 09:47:34 2200.000
DOVE 4 01 Jun 09:41:01 09:44:01 19° 292° (WNW) 09:46:56 437.250
CUBEBUG 2 01 Jun 09:47:02 09:50:57 37° 98° (E) 09:54:57 437.445
HO-68 01 Jun 09:53:01 10:00:13 79° 287° (WNW) 10:07:23 435.675
FUNcube-1 01 Jun 09:54:39 09:57:41 19° 95° (E) 10:00:43 145.935
UWE-3 01 Jun 10:04:31 10:08:30 40° 99° (E) 10:12:35 435.000/436.395/437.385
AAUSAT CUBESAT 2 01 Jun 10:04:55 10:09:08 84° 99° (E) 10:13:20 437.432
UNISAT 6 01 Jun 10:05:25 10:08:24 18° 68° (ENE) 10:11:21 437.425
CUTE 1.7 + AOD 2 01 Jun 10:05:32 10:09:29 37° 287° (WNW) 10:13:26 437.475
COMPASS 1 01 Jun 10:07:38 10:11:50 71° 284° (WNW) 10:16:02 437.405
TIGRISAT 01 Jun 10:10:58 10:14:05 20° 69° (ENE) 10:17:12 435.000
O/OREOS (USA 219) 01 Jun 10:21:32 10:24:44 19° 300° (WNW) 10:27:55 437.305
SO-50 01 Jun 10:21:37 10:24:39 17° 251° (WSW) 10:27:37 436.795
BEESAT 2 01 Jun 10:24:57 10:28:10 24° 112° (ESE) 10:31:24 435.950
CUSAT 1 01 Jun 10:27:17 10:31:28 17° 80° (E) 10:36:00 437.405
Oscar 11 01 Jun 10:30:07 10:34:26 61° 100° (E) 10:38:43 145.826/435.025
AUBIESAT-1 01 Jun 10:35:13 10:37:34 18° 294° (WNW) 10:39:56 437.475
PCSat 01 Jun 10:41:29 10:45:24 20° 309° (NW) 10:49:19 145.827
ANTELSAT 01 Jun 10:45:02 10:49:14 52° 74° (ENE) 10:53:24 437.575/2403.000
M-CUBED/EXP-1 PRIME 01 Jun 10:48:27 10:48:49 10° 297° (WNW) 10:49:13 437.505
BEESAT 3 01 Jun 10:48:30 10:52:25 89° 302° (WNW) 10:56:23 437.485
GONETS M04 01 Jun 10:50:55 10:58:13 32° 275° (W) 11:05:32
ZACube-1 01 Jun 10:54:37 10:58:51 76° 285° (WNW) 11:03:10 437.345
Cosmos 2499 01 Jun 11:00:00 11:08:08 44° 272° (W) 11:16:20 435.465 / 435.565
SRMSAT 01 Jun 11:07:40 11:09:43 12° 193° (SSW) 11:11:46 437.500
DANDE 01 Jun 11:09:43 11:13:11 16° 78° (ENE) 11:17:05 436.750
SEEDS 01 Jun 11:09:49 11:10:35 10° 295° (WNW) 11:11:21 437.485
DUCHIFAT 1 01 Jun 11:13:26 11:16:02 16° 68° (ENE) 11:18:37 145.980
CUBEBUG 2 01 Jun 11:24:47 11:27:17 16° 292° (WNW) 11:29:49 437.445
DELFI C3 01 Jun 11:26:35 11:30:34 58° 284° (WNW) 11:34:30 145.870
FUNcube-1 01 Jun 11:30:12 11:33:56 30° 288° (WNW) 11:37:42 145.935
JAS-2 01 Jun 11:35:11 11:38:12 13° 55° (NE) 11:41:14 435.910
UNISAT 6 01 Jun 11:40:59 11:44:52 32° 262° (W) 11:48:44 437.425
UWE-3 01 Jun 11:42:17 11:44:38 15° 292° (WNW) 11:46:59 435.000/436.395/437.385
HO-68 01 Jun 11:43:40 11:46:47 13° 304° (NW) 11:49:55 435.675
TIGRISAT 01 Jun 11:46:48 11:50:35 29° 263° (W) 11:54:20 435.000
HUMSAT D 01 Jun 11:52:39 11:56:51 70° 284° (WNW) 12:01:04 437.325/437.525
QB50P1 01 Jun 11:55:53 12:00:03 58° 75° (ENE) 12:04:12 145.935-145.965
POPSAT HIP 1 01 Jun 11:56:02 12:00:10 57° 75° (ENE) 12:04:19 437.405
AISAT 01 Jun 12:00:00 12:02:18 14° 93° (E) 12:04:35 437.250
QB50P2 01 Jun 12:00:04 12:04:16 70° 76° (ENE) 12:08:29 145.880/145.840
POLYITAN 1 01 Jun 12:02:34 12:06:47 72° 75° (ENE) 12:10:59 437.675
BEESAT 2 01 Jun 12:02:38 12:05:55 24° 307° (NW) 12:09:12 435.950
CUSAT 1 01 Jun 12:05:44 12:12:21 79° 279° (W) 12:20:17 437.405
Oscar 11 01 Jun 12:09:03 12:10:00 11° 295° (WNW) 12:10:56 145.826/435.025
NANOSAT C BR1 01 Jun 12:11:09 12:15:22 86° 77° (ENE) 12:19:35 145.865
50 SAT 01 Jun 12:19:09 12:22:13 24° 97° (E) 12:25:15 437.505
ANTELSAT 01 Jun 12:25:12 12:26:12 11° 268° (W) 12:27:12 437.575/2403.000
DX 1 01 Jun 12:34:23 12:38:05 27° 97° (E) 12:41:46 434.975-435.025
CUBEBUG 1 01 Jun 12:36:46 12:40:50 37° 98° (E) 12:44:51 437.445
SPROUT 01 Jun 12:40:28 12:42:53 15° 93° (E) 12:45:17 437.525
BUGSAT 1 01 Jun 12:42:50 12:47:01 86° 81° (E) 12:51:12 437.445
DUCHIFAT 1 01 Jun 12:47:32 12:51:24 36° 261° (W) 12:55:17 145.980
DANDE 01 Jun 12:48:56 12:54:42 73° 280° (W) 13:02:13 436.750
VELOX 1 01 Jun 12:57:46 13:02:10 65° 101° (E) 13:06:31 145.980
ESTCUBE 1 01 Jun 12:58:23 13:02:57 79° 283° (WNW) 13:07:27 437.505/2401.250
Oscar 19 01 Jun 12:59:09 13:02:45 19° 66° (ENE) 13:06:22 437.125/150
UKube-1 01 Jun 13:13:03 13:17:20 64° 101° (ESE) 13:21:36 .
JAS-2 01 Jun 13:14:19 13:21:42 69° 73° (ENE) 13:29:31 435.910
AIST 2 01 Jun 13:17:44 13:21:49 66° 300° (WNW) 13:25:57 435.215
AISAT 01 Jun 13:34:48 13:38:58 43° 287° (WNW) 13:43:06 437.250
CUSAT 1 01 Jun 13:52:25 13:55:54 14° 299° (WNW) 13:59:36 437.405
50 SAT 01 Jun 13:53:08 13:55:45 18° 290° (WNW) 13:58:21 437.505
Gurwin Techsat 1B 01 Jun 14:03:46 14:08:29 34° 70° (ENE) 14:13:13 435.225
AO-85 01 Jun 14:07:26 14:11:37 33° 53° (NE) 14:15:27 145.980
Cosmos 2491 01 Jun 14:10:13 14:16:29 21° 68° (ENE) 14:22:41 435.465 / 435.565
DX 1 01 Jun 14:10:45 14:14:07 22° 291° (WNW) 14:17:27 434.975-435.025
CUBEBUG 1 01 Jun 14:14:04 14:16:46 16° 293° (WNW) 14:19:28 437.445
SPROUT 01 Jun 14:15:01 14:18:57 38° 288° (WNW) 14:22:53 437.525
TISAT 1 01 Jun 14:18:51 14:22:56 55° 100° (E) 14:27:00 437.305
SWISSCUBE 01 Jun 14:25:11 14:26:59 12° 92° (E) 14:28:48 437.505
ITUPSAT 1 01 Jun 14:33:53 14:36:11 13° 92° (E) 14:38:29 437.325
Oscar 19 01 Jun 14:36:43 14:41:41 46° 261° (W) 14:46:41 437.125/150
VELOX 1 01 Jun 14:37:25 14:38:02 10° 296° (WNW) 14:38:39 145.980
DANDE 01 Jun 14:37:28 14:39:18 11° 303° (WNW) 14:41:14 436.750
RS-15 01 Jun 14:51:54 14:53:28 10° 94° (E) 14:55:03 29.354- 29.394
UKube-1 01 Jun 14:52:27 14:52:48 10° 296° (WNW) 14:53:09 .
BEESAT 01 Jun 14:52:33 14:56:17 22° 95° (E) 15:00:00 436.000
JAS-2 01 Jun 15:01:42 15:07:12 22° 269° (W) 15:12:57 435.910
AO-7 01 Jun 15:21:00 15:28:31 40° 63° (ENE) 15:36:03 29.400- 29.500
ITAMSAT 1 01 Jun 15:29:57 15:35:07 88° 77° (ENE) 15:40:20 435.822/435.867
Gurwin Techsat 1B 01 Jun 15:44:02 15:48:24 26° 264° (W) 15:52:49 435.225
AO-85 01 Jun 15:48:34 15:51:45 20° 252° (WSW) 15:54:45 145.980
TISAT 1 01 Jun 15:57:09 15:58:04 11° 295° (WNW) 15:59:00 437.305
KKS-1 01 Jun 15:58:35 16:00:00 11° 92° (E) 16:01:25 437.445
YUBILEINY 01 Jun 15:59:16 16:07:33 52° 90° (E) 16:15:51 435.215
SWISSCUBE 01 Jun 16:00:22 16:05:06 59° 286° (WNW) 16:09:49 437.505
Cosmos 2491 01 Jun 16:05:24 16:14:05 73° 267° (W) 16:22:43 435.465 / 435.565
ITUPSAT 1 01 Jun 16:09:36 16:14:18 54° 287° (WNW) 16:18:59 437.325
HORYU 2 01 Jun 16:19:41 16:22:06 15° 66° (ENE) 16:24:33 437.375
BEESAT 01 Jun 16:29:49 16:34:04 32° 290° (WNW) 16:38:18 436.000
MOZHAYETS 4 01 Jun 16:51:28 16:55:49 39° 98° (E) 17:00:08
